Flag for Poland Weather past 2 weeks in Szczecin, Poland

Now
43 °F

Broken clouds.


Feels Like: 39 °F
Forecast: 41 / 51 °F
Wind: 7 mph from Northwest

Location: Szczecin Airport

Current Time: Apr 27, 2015 at 9:14:13 PM

Latest Report: Apr 27, 2015 at 8:30 PM


Visibility: N/A

Pressure: 29.71 "Hg

Humidity: 93%

Dew point: 41 °F

Location of SzczecinLocation

Historic Weather in Szczecin — Graph

°F

Szczecin temperature yesterday

Maximum temperature yesterday: 64 °F (at 2:30 PM)
Minimum temperature yesterday: 50 °F (at 10:00 PM)
Average temperature yesterday: 55 °F

Past Weeks' High & Low Weather Summary

 TemperatureHumidityPressure
High72 °F (Apr 25, 5:30 PM)100% (Apr 18, 3:00 AM)30.27 "Hg (Apr 18, 3:00 AM)
Low32 °F (Apr 18, 2:30 AM)26% (Apr 15, 6:30 PM)29.59 "Hg (Apr 27, 11:30 AM)
Average49 °F68%30.01 "Hg
* Reported Apr 12 8:00 PM — Apr 27 8:00 PM, Szczecin, Weather by CustomWeather, © 2015

Note: Actual official high and low records may vary slightly from our data, if they occured in-between our weather recording intervals... More about our weather records

Advertising

Szczecin weather history for previous 24 hours

 ConditionsComfort  
Time TempWeatherWind HumidityBarometerVisibility
8:00 PM
Mon, Apr 27
45 °FBroken clouds.9 mph93%29.68 "HgN/A
7:30 PM45 °FLight rain. Broken clouds.9 mph100%29.68 "HgN/A
7:00 PM45 °FLight rain. Broken clouds.8 mph100%29.68 "HgN/A
6:30 PM46 °FLight rain. Broken clouds.7 mph93%29.68 "HgN/A
6:00 PM46 °FLight rain. Partly sunny.9 mph93%29.68 "HgN/A
5:30 PM46 °FLight rain. Broken clouds.8 mph93%29.68 "HgN/A
5:00 PM46 °FLight rain. Broken clouds.9 mph100%29.65 "HgN/A
4:30 PM48 °FLight rain. Partly sunny.6 mph94%29.65 "HgN/A
4:00 PM48 °FLight rain. Broken clouds.7 mph100%29.65 "HgN/A
3:30 PM48 °FLight rain. Partly sunny.8 mph100%29.65 "HgN/A
3:00 PM48 °FPartly sunny.8 mph100%29.62 "HgN/A
2:30 PM48 °FBroken clouds.10 mph100%29.62 "HgN/A
2:00 PM50 °FPartly sunny.8 mph100%29.62 "HgN/A
1:30 PM50 °FDrizzle. Partly sunny.12 mph100%29.62 "Hg5 mi
1:00 PM50 °FLight rain. Partly sunny.3 mph100%29.59 "Hg4 mi
12:30 PM50 °FLight rain. Fog.3 mph100%29.62 "Hg2 mi
12:00 PM50 °FLight rain. Fog.3 mph100%29.62 "Hg3 mi
11:30 AM50 °FLight rain. Fog.6 mph100%29.59 "Hg3 mi
11:00 AM50 °FLight rain. Fog.5 mph100%29.62 "Hg2 mi
10:30 AM50 °FLight rain. Fog.3 mph100%29.62 "Hg2 mi
10:00 AM50 °FLight rain. Fog.6 mph100%29.62 "Hg1 mi
9:30 AM50 °FFog.5 mph100%29.62 "Hg1 mi
9:00 AM50 °FFog.3 mph100%29.62 "Hg1 mi
8:30 AM50 °FFog.5 mph100%29.62 "Hg1 mi
8:00 AM50 °FFog.3 mph100%29.62 "Hg1 mi
7:30 AM50 °FFog.3 mph94%29.62 "Hg0 mi
7:00 AM50 °FFog.2 mph94%29.65 "Hg0 mi
6:30 AM48 °FFog.2 mph87%29.62 "Hg0 mi
6:00 AM48 °FFog.2 mph100%29.65 "Hg1 mi
5:30 AM48 °FFog.2 mph100%29.65 "Hg1 mi
5:00 AM48 °FFog.No wind94%29.65 "Hg1 mi
4:30 AM48 °FFog.No wind94%29.65 "Hg1 mi
4:00 AM48 °FFog.No wind100%29.65 "Hg1 mi
3:30 AM48 °FFog.No wind100%29.65 "Hg2 mi
3:00 AM48 °FFog.7 mph100%29.68 "Hg2 mi
2:30 AM48 °FFog.3 mph100%29.65 "Hg2 mi
2:00 AM50 °FFog.5 mph94%29.65 "Hg3 mi
1:30 AM50 °FFog.5 mph100%29.68 "Hg3 mi
1:00 AM50 °FFog.3 mph100%29.68 "Hg3 mi
12:30 AM52 °FClear.3 mph94%29.68 "Hg4 mi
12:00 AM54 °FClear.3 mph94%29.68 "Hg4 mi
11:30 PM
Sun, Apr 26
52 °FClear.2 mph100%29.68 "Hg4 mi
11:00 PM50 °FClear.5 mph100%29.68 "Hg4 mi
10:30 PM50 °FClear.3 mph94%29.68 "Hg5 mi
10:00 PM50 °FClear.3 mph94%29.68 "Hg5 mi
9:30 PM52 °FClear.3 mph88%29.68 "Hg10 mi
9:00 PM55 °FSunny.5 mph82%29.68 "Hg10 mi
Weather by CustomWeather, © 2015

See weather overviewHow to use our weather pages